Back to catalog

CZ-3C DEB

LostHEO
NORAD 48549·DEBRIS·🇨🇳 China

Launched Feb 24, 2012 from Xichang Satellite Launch Center

Loading…

Next Passes (next 24 hours)

TLE

StaleSource: Space-Track

Epoch: Feb 23, 2024, 23:15 UTC

1 48549U 12008AU  24054.96883400  .00000985  00000-0  11647-2 0  9997
2 48549  21.8390 321.6105 6966416 273.0508  16.2113  2.62604945 88598

Track CZ-3C DEB in real time with AllMySat

Download on the App Store